SCP
0 0 1 1 1 1 1 0 0 0 0 0 0 0 0 0 1 1 1 1 1 1 1 1 1 2 2 1 1 1 1 1 1 1 1 1 1 1 1 1 1 1 1
0 0 0 1 1 1 1 0 0 0 0 0 0 0 0 0 0 1 1 1 1 1 1 1 1 1 1 1 1 1 1 1 1 1 1 1 1 1 1 1 1 1 1
0 0 0 0 0 1 1 0 0 0 0 0 0 0 0 0 0 1 1 1 1 1 1 1 1 1 1 1 1 1 1 1 1 1 1 1 1 1 1 1 1 1 1
0 0 0 0 0 0 0 0 0 0 0 0 0 0 0 0 1 1 1 1 1 1 1 1 1 1 1 2 2 2 1 1 1 1 1 1 1 1 1 1 1 1 1
0 0 0 0 0 0 0 0 0 0 0 0 0 0 0 0 1 1 1 1 1 1 1 1 1 1 1 2 2 2 1 1 1 1 1 1 1 1 1 2 1 1 1
1 1 1 0 0 1 1 1 1 1 1 0 0 0 0 0 0 1 1 1 0 0 0 1 1 1 1 2 2 1 1 1 0 1 1 1 1 1 1 2 2 1 1
1 1 1 1 1 1 1 1 1 1 1 1 1 1 0 0 0 0 0 0 0 0 0 1 1 1 1 1 1 1 1 1 0 1 1 1 1 1 1 2 2 1 1
1 1 1 1 1 1 1 1 1 1 1 1 1 1 0 0 0 0 0 0 0 0 0 0 0 1 1 0 0 0 1 1 1 1 1 1 1 1 1 2 2 2 1
2 2 2 1 1 1 1 1 1 1 1 1 1 0 0 0 0 0 0 0 0 0 0 0 0 0 0 0 0 0 0 0 1 1 1 1 1 1 1 1 1 1 1
2 2 2 1 1 1 1 1 1 1 1 1 1 1 0 0 0 0 0 0 0 0 0 0 0 0 0 0 0 0 0 0 0 1 1 1 1 1 1 1 1 1 1
2 2 1 1 1 1 1 1 1 1 1 1 1 1 0 0 0 0 0 0 0 0 0 0 0 0 0 0 0 0 0 0 0 1 1 1 1 1 1 1 1 1 1
2 1 1 1 1 1 1 1 1 1 1 1 1 1 1 0 0 0 0 0 0 0 0 0 0 0 0 0 0 0 0 0 0 0 0 1 1 1 1 1 1 1 1
1 1 1 1 1 1 1 1 1 1 1 1 1 1 1 0 0 0 0 0 0 0 0 0 0 0 0 0 0 0 0 0 0 0 0 0 0 0 0 0 1 1 1
1 1 1 1 1 1 1 1 1 1 1 1 1 1 1 1 1 0 0 0 0 0 0 0 0 0 0 0 0 0 0 0 0 0 0 0 0 0 0 0 0 1 1
1 1 1 1 1 1 0 1 1 1 1 1 1 1 1 1 1 0 0 0 0 0 0 0 0 0 0 0 0 0 0 0 0 0 0 0 0 0 0 0 0 1 1
1 1 1 1 1 1 1 1 1 1 1 1 1 1 1 1 1 1 0 0 0 0 0 0 0 0 0 0 0 0 0 0 0 0 0 0 0 0 0 0 0 0 1
1 1 1 1 1 1 1 0 1 1 1 0 0 0 0 1 1 1 0 0 0 0 0 0 0 0 0 0 0 0 0 0 0 0 0 0 0 0 0 0 0 0 0
1 1 1 1 1 1 1 0 0 0 0 0 0 0 0 1 1 1 0 0 0 0 0 0 0 0 0 0 0 0 0 0 0 0 0 0 0 0 0 0 0 0 0
1 1 1 1 1 1 1 1 0 0 0 0 0 0 0 0 1 1 0 0 0 0 0 0 0 0 0 0 0 0 0 0 0 0 0 0 0 0 0 0 0 0 0
1 2 2 2 1 1 1 1 1 1 0 0 0 0 0 0 0 0 0 0 0 0 0 0 0 0 0 0 0 0 0 0 0 0 0 0 0 0 0 0 0 0 0
1 2 2 2 2 1 1 1 1 1 1 0 0 0 0 0 0 0 0 0 0 0 0 0 0 0 0 0 0 0 0 0 0 0 0 0 0 0 0 0 0 0 0
2 2 2 2 2 1 1 0 0 1 1 0 0 0 0 0 0 0 0 0 0 0 0 0 0 0 0 0 0 0 0 0 0 0 0 0 0 0 0 0 0 0 0
2 2 2 2 2 1 1 0 0 0 1 1 0 0 0 0 0 0 0 0 0 0 0 0 0 0 0 0 0 0 0 0 0 0 0 0 0 0 0 0 0 0 0
3 3 2 2 2 1 1 0 0 0 0 0 0 0 0 0 0 0 0 0 0 0 0 0 0 0 0 0 0 0 0 0 0 0 0 0 0 0 0 0 0 0 0
3 3 3 2 2 1 1 0 0 0 0 0 0 0 0 0 0 0 0 0 0 0 0 0 0 0 0 0 0 0 0 0 0 0 0 0 0 0 0 0 0 0 0
3 3 3 2 2 2 1 0 0 0 1 1 0 0 0 0 0 0 0 0 0 0 0 0 0 0 0 0 0 0 0 0 0 0 0 0 0 0 0 0 0 0 0
Wind_Speed
2 2 2 2 2 2 2 2 3 4 4 4 4 5 4 5 4 4 3 9 9 10 10 10 10 9 9 9 9 9 10 10 10 10 9 9 9 9 9 8 8 8 8
2 3 3 3 3 2 2 2 3 3 3 3 4 4 4 4 4 3 3 5 8 9 9 10 10 9 9 9 9 9 10 10 10 10 9 9 9 8 9 9 9 8 8
3 3 3 3 3 3 4 3 4 3 3 4 4 4 4 4 4 4 4 3 3 7 9 9 9 9 9 9 9 9 9 10 10 9 9 8 8 8 8 8 8 8 8
4 3 3 3 3 3 3 2 3 3 3 4 3 3 3 4 5 5 5 4 3 3 5 8 8 9 9 9 9 10 10 10 10 9 8 7 7 7 7 7 7 7 7
4 4 3 2 3 3 3 3 3 2 3 3 2 3 3 3 4 5 5 5 4 4 3 5 8 9 9 9 9 9 10 10 10 9 9 7 6 6 7 7 7 7 6
4 3 2 3 3 3 3 3 3 3 2 2 2 3 2 3 4 4 4 4 4 5 4 4 3 5 9 8 8 9 9 9 9 8 8 7 6 6 6 7 7 7 6
4 3 2 3 3 3 2 3 3 3 2 2 2 2 3 3 4 3 3 3 4 4 4 4 3 3 4 9 9 9 9 8 8 8 7 6 6 5 6 6 7 6 7
3 3 2 2 3 2 2 3 2 2 1 2 1 1 1 2 3 2 2 3 3 3 4 5 5 5 4 3 6 10 9 8 7 7 7 6 6 6 5 6 6 6 6
3 3 3 2 2 1 1 1 2 2 1 1 2 2 1 0 1 2 2 3 3 3 3 3 5 5 5 4 3 7 9 8 8 7 7 6 5 5 5 5 5 6 6
2 2 2 2 2 2 2 1 2 1 1 1 1 2 1 1 1 1 2 2 3 3 3 4 4 4 4 3 5 9 9 8 8 8 7 7 6 6 5 5 5 5 6
2 2 2 2 2 1 2 2 2 2 1 1 1 1 2 2 1 1 0 1 2 2 2 3 3 3 4 4 3 7 9 9 9 8 8 7 7 7 7 6 5 4 5
2 2 2 2 2 2 2 2 1 2 2 1 1 1 1 1 1 1 1 0 1 1 1 2 2 2 3 3 5 8 9 9 8 9 8 7 7 8 7 7 5 3 4
1 1 2 2 2 2 2 2 2 1 2 1 1 1 1 1 1 1 2 1 1 1 1 1 1 2 2 2 3 7 7 8 8 8 8 9 9 7 7 7 6 4 4
1 1 2 2 2 2 2 1 1 1 2 2 2 2 1 1 2 1 1 1 1 1 1 1 1 2 2 2 3 4 3 6 7 7 7 8 8 8 7 6 6 5 5
1 2 2 2 1 1 1 1 1 1 1 1 1 1 1 1 1 1 1 1 1 0 1 1 1 1 1 2 2 2 2 4 5 6 6 6 7 7 7 6 6 5 5
1 2 2 1 1 1 1 1 1 1 1 0 0 1 1 1 1 1 1 1 1 1 0 1 1 0 1 1 3 2 1 3 3 4 4 5 5 6 5 5 5 5 4
1 1 1 1 1 1 1 1 1 1 1 0 0 0 0 1 1 1 1 1 1 1 1 1 1 0 1 1 1 0 0 1 1 2 3 3 3 4 4 4 4 3 3
1 1 1 0 0 1 1 0 0 0 0 0 1 0 0 1 1 1 1 1 1 0 1 0 1 0 0 1 1 1 0 0 1 0 1 2 2 2 3 3 3 2 2
1 1 1 1 0 0 1 1 1 1 0 0 1 0 0 1 1 0 0 0 1 1 1 1 1 1 1 0 0 1 1 1 1 1 1 1 2 3 3 3 2 1 1
1 0 1 1 0 0 0 1 1 1 0 0 0 1 0 1 1 0 0 1 1 0 0 1 1 1 1 1 0 1 2 1 2 1 1 1 2 3 3 3 2 2 1
1 1 1 1 1 1 0 1 1 2 1 1 1 1 0 1 0 0 0 0 0 0 1 1 1 1 1 1 1 1 2 2 2 1 1 2 1 1 2 3 3 3 3
1 1 1 1 1 1 1 2 2 2 2 2 2 1 2 1 0 1 1 1 1 1 1 1 1 2 2 2 1 1 1 1 3 2 1 3 2 2 2 2 3 4 5
1 2 2 2 2 2 3 3 4 3 2 2 2 1 2 1 1 1 2 2 2 3 3 2 2 3 2 2 2 2 2 2 3 3 1 3 2 3 3 3 4 5 5
1 2 2 2 2 3 4 4 5 3 3 3 2 2 1 1 2 1 1 1 2 2 3 2 3 3 3 2 3 3 3 3 3 2 1 3 3 3 3 2 6 6 6
2 2 2 2 2 3 4 4 3 2 2 3 3 2 2 2 3 2 1 2 2 3 4 4 4 4 4 5 3 1 2 2 3 3 2 2 2 2 2 2 4 7 6
2 2 2 2 2 2 4 4 4 2 2 3 2 2 3 2 3 3 3 2 3 3 3 3 3 4 4 4 5 4 3 3 2 3 2 1 2 1 2 2 2 2 3
Wind_Direction
34 40 48 37 37 37 30 26 45 47 42 34 48 60 63 64 73 82 76 78 77 70 69 66 65 65 64 64 63 61 61 62 61 61 63 66 66 62 60 57 55 56 57
40 45 55 34 25 23 28 44 56 52 53 45 41 44 54 66 74 86 93 82 80 77 71 67 61 59 61 60 59 60 63 62 60 60 60 61 63 62 60 57 54 52 52
41 44 45 44 24 22 29 38 48 45 53 53 45 42 39 38 60 79 85 83 80 77 73 68 63 59 61 61 59 59 60 60 57 57 57 61 63 63 63 59 55 51 50
54 49 38 42 34 28 28 37 49 51 46 47 38 32 42 32 43 65 78 77 71 71 70 69 64 59 59 58 58 58 57 58 56 55 55 58 61 62 64 63 57 53 50
47 56 32 36 44 35 27 37 41 55 58 52 52 46 45 43 38 56 64 70 70 68 69 68 66 61 56 54 56 58 55 54 53 51 50 53 58 59 61 62 58 55 51
36 53 37 41 44 44 29 41 51 47 58 55 55 53 52 59 53 52 57 62 64 66 65 67 67 59 54 51 53 54 49 47 48 46 44 46 54 57 62 61 56 54 51
32 48 44 48 50 53 34 41 49 51 41 44 68 43 25 47 62 56 53 60 66 64 64 62 59 62 56 50 49 50 47 43 45 43 42 47 55 56 60 60 55 54 52
25 30 48 61 70 67 46 45 54 39 23 28 57 74 34 10 17 47 65 65 71 64 62 61 57 54 55 51 42 45 41 42 45 44 44 52 61 57 58 59 56 55 56
31 26 40 64 67 79 83 57 67 59 25 356 45 67 82 88 327 10 50 65 72 64 59 60 61 52 54 51 40 35 39 39 42 42 42 54 59 58 56 60 59 52 55
47 39 27 57 73 69 78 48 66 58 55 2 351 18 45 101 112 19 10 41 69 70 65 62 59 52 56 52 42 38 41 38 40 42 43 49 55 55 51 53 56 51 50
37 44 28 36 64 80 85 57 50 45 62 50 15 359 15 16 35 105 70 2 26 50 66 74 77 61 60 57 46 41 43 40 40 42 41 44 46 48 46 43 45 43 42
25 30 48 32 45 62 65 58 61 52 42 46 29 32 55 44 340 55 104 116 50 14 36 71 77 74 73 64 51 50 49 47 45 41 37 36 36 37 34 32 31 31 35
25 4 39 47 48 55 60 55 43 47 40 49 51 37 40 32 13 50 92 86 49 333 40 54 76 81 76 72 58 51 51 47 44 41 37 32 29 26 24 22 23 31 33
34 38 53 52 52 60 57 61 50 39 43 31 35 55 49 20 28 53 91 97 56 352 37 6 30 75 77 80 55 51 54 51 44 39 33 29 25 23 21 19 22 24 33
58 56 58 49 40 63 72 75 66 48 54 31 16 27 42 47 37 40 70 118 140 178 322 328 23 17 85 93 63 62 61 59 46 35 31 27 24 23 25 27 26 29 32
66 70 59 39 24 33 57 71 67 46 72 83 88 40 14 27 49 46 44 23 52 129 232 320 342 322 56 71 60 65 78 66 43 31 31 27 26 22 19 21 23 29 30
93 93 87 47 18 15 22 81 78 63 46 355 52 99 8 38 54 39 36 38 31 78 105 326 346 28 57 79 44 348 152 108 45 25 16 20 19 15 13 14 16 22 28
119 121 125 117 7 349 1 65 119 40 86 326 317 359 348 66 60 42 33 32 8 104 136 229 298 309 279 189 167 255 288 171 187 49 353 353 348 350 356 359 0 9 19
138 149 160 150 0 337 350 317 229 211 143 307 318 287 227 113 124 139 113 39 327 336 124 176 254 275 287 271 316 296 299 282 253 210 236 302 315 312 327 332 335 335 2
145 214 208 178 212 237 305 315 337 355 65 77 11 323 334 122 156 196 220 224 236 224 206 169 213 256 268 278 310 278 304 296 284 272 270 262 271 285 295 297 289 272 257
246 246 245 230 247 234 278 8 343 332 312 259 243 236 97 53 84 139 308 277 303 223 214 201 222 250 250 278 268 261 282 293 287 262 278 268 265 275 281 274 264 258 245
259 250 241 234 251 271 290 309 314 288 280 258 245 225 203 189 1 9 320 305 309 262 245 223 236 236 244 242 266 277 278 292 289 273 254 269 230 243 243 235 240 241 243
253 269 259 232 223 225 243 267 283 284 278 268 250 238 251 222 176 216 269 282 287 292 273 237 240 245 239 236 234 261 267 266 261 248 248 267 249 248 244 225 219 229 232
252 256 261 259 245 243 249 257 274 272 278 272 248 229 218 207 227 214 249 277 270 274 265 255 233 241 241 236 226 233 241 266 278 268 207 259 263 258 254 229 218 219 222
266 259 251 248 240 248 252 250 255 261 267 276 261 236 229 209 214 220 238 267 280 280 276 274 281 278 275 269 262 247 252 261 275 269 239 237 259 274 261 241 225 218 218
276 274 266 260 246 235 246 245 242 242 256 270 274 253 241 238 217 218 217 236 258 267 279 289 283 281 268 262 264 232 218 230 251 261 240 223 255 278 290 264 216 207 220